Weather History for Tallahassee, FL

Change the Weather History Date:

Friday, February 1, 2013

  Actual Average Record
Temperature  
Mean Temperature 47 °F 52 °F  
Max Temperature 63 °F 65 °F 83 °F (1989)
Min Temperature 30 °F 40 °F 20 °F (1977)
Degree Days  
Heating Degree Days 18    
Month to date heating degree days 18  
Since 1 July heating degree days 736  
Cooling Degree Days 0    
Month to date cooling degree days 0  
Year to date cooling degree days 34  
Moisture  
Dew Point 29 °F    
Average Humidity 55    
Maximum Humidity 85    
Minimum Humidity 25    
Precipitation  
Precipitation 0.00 in 0.16 in 3.95 in (2007)
Month to date precipitation 0.00 0.16  
Year to date precipitation 0.85 4.50  
Sea Level Pressure  
Sea Level Pressure 30.32 in    
Wind  
Wind Speed 4 mph (NW)    
Max Wind Speed 15 mph    
Max Gust Speed 21 mph    
Visibility 10 miles    
Events      
T = Trace of Precipitation, MM = Missing Value Source: NWS Daily Summary

Daily Weather History Graph

Daily Weather History Graph

Search for Another Location

Airport:

Trip Planner

Search our weather history database for the weather conditions in past years. The results will help you decide how hot, cold, wet, or windy it might be!

Date:

Astronomy

Feb. 01, 2013 Rise Set
Actual Time 7:28 AM EST 6:14 PM EST
Civil Twilight 7:03 AM EST 6:39 PM EST
Nautical Twilight 6:34 AM EST 7:08 PM EST
Astronomical Twilight 6:05 AM EST 7:36 PM EST
Moon 11:49 PM EST (2/1) 10:29 AM EST (2/1)
Length of Visible Light 11h 36m
Length of Day
10h 46m
Waning Gibbous, 70% of the Moon is Illuminated
Feb 1
Waning Gibbous
Feb 3
Last Quarter
Feb 10
New
Feb 17
First Quarter
Feb 25
Full

Hourly Weather History & Observations

Time (EST) Temp. Windchill Dew Point Humidity Pressure Visibility Wind Dir Wind Speed Gust Speed Precip Events Conditions
12:53 AM 32.0 °F - 28.0 °F 85% 30.30 in 10.0 mi Calm Calm - N/A   Clear
1:53 AM 30.9 °F - 27.0 °F 85% 30.30 in 10.0 mi Calm Calm - N/A   Clear
2:53 AM 32.0 °F - 27.0 °F 82% 30.30 in 10.0 mi Calm Calm - N/A   Clear
3:53 AM 30.9 °F - 27.0 °F 85% 30.31 in 10.0 mi Calm Calm - N/A   Clear
4:53 AM 30.9 °F - 27.0 °F 85% 30.31 in 10.0 mi Calm Calm - N/A   Clear
5:53 AM 32.0 °F - 27.0 °F 82% 30.31 in 10.0 mi Calm Calm - N/A   Clear
6:53 AM 30.9 °F - 27.0 °F 85% 30.31 in 10.0 mi Calm Calm - N/A   Partly Cloudy
7:53 AM 34.0 °F - 28.9 °F 82% 30.33 in 10.0 mi Calm Calm - N/A   Clear
8:53 AM 46.0 °F - 34.0 °F 63% 30.35 in 10.0 mi Calm Calm - N/A   Clear
9:53 AM 52.0 °F - 32.0 °F 47% 30.37 in 10.0 mi NW 10.4 mph - N/A   Clear
10:53 AM 55.9 °F - 30.9 °F 39% 30.37 in 10.0 mi NW 9.2 mph - N/A   Clear
11:53 AM 57.9 °F - 30.0 °F 35% 30.36 in 10.0 mi WNW 11.5 mph - N/A   Clear
12:53 PM 57.9 °F - 30.9 °F 36% 30.34 in 10.0 mi NW 10.4 mph - N/A   Clear
1:53 PM 57.9 °F - 32.0 °F 37% 30.31 in 10.0 mi NNW 8.1 mph - N/A   Clear
2:53 PM 60.1 °F - 33.1 °F 36% 30.31 in 10.0 mi Variable 6.9 mph - N/A   Clear
3:53 PM 62.1 °F - 28.9 °F 29% 30.30 in 10.0 mi NW 8.1 mph 17.3 mph N/A   Clear
4:53 PM 62.1 °F - 27.0 °F 26% 30.30 in 10.0 mi NNW 11.5 mph - N/A   Clear
5:53 PM 59.0 °F - 24.1 °F 26% 30.31 in 10.0 mi NNW 10.4 mph - N/A   Clear
6:53 PM 50.0 °F - 30.0 °F 46% 30.31 in 10.0 mi Calm Calm - N/A   Clear
7:53 PM 44.1 °F - 30.9 °F 60% 30.33 in 10.0 mi Calm Calm - N/A   Clear
8:53 PM 41.0 °F - 30.0 °F 65% 30.34 in 10.0 mi Calm Calm - N/A   Clear
9:53 PM 37.0 °F 34.5 °F 28.9 °F 73% 30.35 in 10.0 mi NW 3.5 mph - N/A   Clear
10:53 PM 37.0 °F - 28.0 °F 70% 30.35 in 10.0 mi Calm Calm - N/A   Clear
11:53 PM 35.1 °F - 27.0 °F 72% 30.36 in 10.0 mi Calm Calm - N/A   Clear